TimeCDT,TemperatureF,Dew PointF,Humidity,Sea Level PressureIn,VisibilityMPH,Wind Direction,Wind SpeedMPH,Gust SpeedMPH,PrecipitationIn,Events,Conditions,WindDirDegrees,DateUTC
12:53 AM,63.0,57.9,84,29.88,10.0,NW,6.9,-,N/A,,Clear,310,2012-09-03 05:53:00
1:53 AM,59.0,55.0,87,29.88,10.0,NW,5.8,-,N/A,,Clear,320,2012-09-03 06:53:00
2:53 AM,59.0,54.0,83,29.88,10.0,Calm,Calm,-,N/A,,Clear,0,2012-09-03 07:53:00
3:48 AM,53.6,53.6,100,29.89,1.5,Calm,Calm,-,N/A,,Clear,0,2012-09-03 08:48:00
3:49 AM,54.0,53.1,97,29.89,1.0,Calm,Calm,-,N/A,,Clear,0,2012-09-03 08:49:00
3:56 AM,53.6,51.8,94,29.89,0.5,Calm,Calm,-,N/A,Fog,Fog,0,2012-09-03 08:56:00
4:09 AM,51.8,51.8,100,29.90,0.2,Calm,Calm,-,N/A,Fog,Fog,0,2012-09-03 09:09:00
4:15 AM,53.6,51.8,94,29.90,1.0,Calm,Calm,-,N/A,,Clear,0,2012-09-03 09:15:00
4:23 AM,53.6,51.8,94,29.90,4.0,Calm,Calm,-,N/A,,Clear,0,2012-09-03 09:23:00
4:25 AM,53.6,51.8,94,29.90,1.2,Calm,Calm,-,N/A,,Clear,0,2012-09-03 09:25:00
4:32 AM,51.8,48.2,88,29.90,0.2,Calm,Calm,-,N/A,Fog,Fog,0,2012-09-03 09:32:00
4:42 AM,51.8,50.0,94,29.90,1.0,Calm,Calm,-,N/A,,Clear,0,2012-09-03 09:42:00
4:45 AM,51.8,48.2,88,29.90,4.0,Calm,Calm,-,N/A,,Clear,0,2012-09-03 09:45:00
4:53 AM,53.1,50.0,89,29.89,5.0,Calm,Calm,-,N/A,,Clear,0,2012-09-03 09:53:00
4:55 AM,53.6,50.0,88,29.90,1.5,Calm,Calm,-,N/A,,Clear,0,2012-09-03 09:55:00
5:02 AM,51.8,50.0,94,29.90,0.5,Calm,Calm,-,N/A,Fog,Fog,0,2012-09-03 10:02:00
5:07 AM,53.6,50.0,88,29.90,2.0,Calm,Calm,-,N/A,,Clear,0,2012-09-03 10:07:00
5:14 AM,51.8,48.2,88,29.90,8.0,Calm,Calm,-,N/A,,Clear,0,2012-09-03 10:14:00
5:38 AM,51.8,50.0,94,29.90,1.8,Calm,Calm,-,N/A,,Clear,0,2012-09-03 10:38:00
5:53 AM,51.1,50.0,96,29.90,1.8,West,3.5,-,N/A,,Clear,280,2012-09-03 10:53:00
5:58 AM,51.8,48.2,88,29.91,3.0,Calm,Calm,-,N/A,,Clear,0,2012-09-03 10:58:00
6:19 AM,48.2,46.4,93,29.91,0.8,Calm,Calm,-,N/A,,Clear,0,2012-09-03 11:19:00
6:27 AM,48.2,46.4,93,29.91,0.2,Calm,Calm,-,N/A,Fog,Fog,0,2012-09-03 11:27:00
6:37 AM,48.2,48.2,100,29.91,0.5,Calm,Calm,-,N/A,Fog,Fog,0,2012-09-03 11:37:00
6:49 AM,48.2,46.4,93,29.91,0.2,Calm,Calm,-,N/A,Fog,Fog,0,2012-09-03 11:49:00
6:53 AM,48.0,46.9,96,29.91,0.2,Calm,Calm,-,N/A,Fog,Fog,0,2012-09-03 11:53:00
7:08 AM,48.2,46.4,93,29.92,0.5,Calm,Calm,-,N/A,Fog,Fog,0,2012-09-03 12:08:00
7:16 AM,48.2,46.4,93,29.92,1.8,Calm,Calm,-,N/A,,Clear,0,2012-09-03 12:16:00
7:20 AM,48.2,46.4,93,29.92,3.0,Calm,Calm,-,N/A,,Clear,0,2012-09-03 12:20:00
7:53 AM,53.1,51.1,93,29.93,9.0,Calm,Calm,-,N/A,,Clear,0,2012-09-03 12:53:00
8:53 AM,64.0,57.0,78,29.93,10.0,Calm,Calm,-,N/A,,Clear,0,2012-09-03 13:53:00
9:53 AM,73.0,55.9,55,29.92,10.0,WSW,3.5,-,N/A,,Clear,250,2012-09-03 14:53:00
10:53 AM,80.1,54.0,40,29.92,10.0,SW,4.6,-,N/A,,Clear,220,2012-09-03 15:53:00
11:53 AM,84.0,44.1,25,29.90,10.0,Variable,5.8,-,N/A,,Clear,0,2012-09-03 16:53:00
12:53 PM,86.0,37.0,18,29.88,10.0,SSW,4.6,-,N/A,,Clear,200,2012-09-03 17:53:00
1:53 PM,88.0,41.0,19,29.89,10.0,SW,8.1,-,N/A,,Clear,220,2012-09-03 18:53:00
2:53 PM,89.1,39.9,18,29.89,10.0,WSW,8.1,-,N/A,,Clear,250,2012-09-03 19:53:00
3:53 PM,88.0,39.0,18,29.89,10.0,West,12.7,-,N/A,,Clear,270,2012-09-03 20:53:00
4:53 PM,82.9,44.1,25,29.89,10.0,WNW,8.1,-,N/A,,Partly Cloudy,290,2012-09-03 21:53:00
5:53 PM,80.1,46.9,31,29.90,10.0,WNW,4.6,-,N/A,,Partly Cloudy,300,2012-09-03 22:53:00
6:53 PM,78.1,46.9,33,29.88,10.0,NNE,12.7,-,N/A,,Partly Cloudy,20,2012-09-03 23:53:00
7:53 PM,73.0,46.9,39,29.90,10.0,North,19.6,26.5,N/A,,Scattered Clouds,350,2012-09-04 00:53:00
8:53 PM,69.1,50.0,51,29.86,10.0,SE,12.7,-,0.00,Rain,Light Rain,130,2012-09-04 01:53:00
9:53 PM,64.9,54.0,68,29.90,10.0,WSW,5.8,21.9,0.03,Rain,Light Rain,240,2012-09-04 02:53:00
10:53 PM,64.0,55.0,73,29.87,10.0,Calm,Calm,-,0.00,,Partly Cloudy,0,2012-09-04 03:53:00
11:53 PM,62.1,55.0,78,29.86,10.0,Calm,Calm,-,N/A,,Scattered Clouds,0,2012-09-04 04:53:00